Location: Olmeneta
(45.2333°N, 10.0167°E)
Time: 07:43:17
(UTC+00:00)

Cosmos 1703 Rocket - Pass Details

Date: 03 March 2021
Orbit: 604 x 634 km, 82.5° (Epoch: 10 April)

Event Time Altitude Azimuth Distance (km) Brightness Sun altitude
Rises 18:48:03 0° 350° (N) 2,910 7.3 -18.0°
Reaches altitude 10° 18:50:18 10° 350° (N) 1,994 6.4 -18.4°
Maximum altitude 18:54:43 85° 265° (W) 623 3.5 -19.2°
Drops below altitude 10° 18:59:04 10° 175° (S) 1,960 6.0 -19.9°
Enters shadow 18:59:31 - 175° (S) 2,139 6.2 -20.0°
